TimeEST,TemperatureF,Dew PointF,Humidity,Sea Level PressureIn,VisibilityMPH,Wind Direction,Wind SpeedMPH,Gust SpeedMPH,PrecipitationIn,Events,Conditions,WindDirDegrees,DateUTC
12:00 AM,26.6,24.8,93,30.14,1.5,NE,3.5,-,N/A,,Clear,40,2012-11-23 05:00:00
12:01 AM,26.6,24.8,93,30.14,1.8,NE,3.5,-,N/A,,Clear,40,2012-11-23 05:01:00
12:02 AM,26.6,24.8,93,30.14,2.5,NE,3.5,-,N/A,,Clear,40,2012-11-23 05:02:00
12:03 AM,26.6,24.8,93,30.14,3.0,NE,3.5,-,N/A,,Clear,40,2012-11-23 05:03:00
12:55 AM,26.6,25.9,97,30.12,10.0,Calm,Calm,-,N/A,,Clear,0,2012-11-23 05:55:00
1:06 AM,26.6,26.6,100,30.12,2.5,Calm,Calm,-,N/A,,Clear,0,2012-11-23 06:06:00
1:07 AM,26.6,26.6,100,30.12,1.8,Calm,Calm,-,N/A,,Clear,0,2012-11-23 06:07:00
1:08 AM,26.6,26.6,100,30.12,1.5,Calm,Calm,-,N/A,,Clear,0,2012-11-23 06:08:00
1:09 AM,26.6,26.6,100,30.12,1.2,Calm,Calm,-,N/A,,Clear,0,2012-11-23 06:09:00
1:10 AM,26.6,26.6,100,30.12,1.0,Calm,Calm,-,N/A,,Clear,0,2012-11-23 06:10:00
1:16 AM,26.6,24.8,93,30.12,1.2,Calm,Calm,-,N/A,,Clear,0,2012-11-23 06:16:00
1:17 AM,26.6,24.8,93,30.12,1.5,Calm,Calm,-,N/A,,Clear,0,2012-11-23 06:17:00
1:18 AM,26.6,24.8,93,30.12,1.8,Calm,Calm,-,N/A,,Clear,0,2012-11-23 06:18:00
1:19 AM,26.6,24.8,93,30.12,2.5,Calm,Calm,-,N/A,,Clear,0,2012-11-23 06:19:00
1:20 AM,26.6,24.8,93,30.12,4.0,Calm,Calm,-,N/A,,Clear,0,2012-11-23 06:20:00
1:23 AM,26.6,24.8,93,30.11,2.5,Calm,Calm,-,N/A,,Clear,0,2012-11-23 06:23:00
1:24 AM,26.6,24.8,93,30.11,1.8,Calm,Calm,-,N/A,,Clear,0,2012-11-23 06:24:00
1:26 AM,26.6,24.8,93,30.12,1.5,Calm,Calm,-,N/A,,Clear,0,2012-11-23 06:26:00
1:32 AM,26.6,24.8,93,30.12,2.0,Calm,Calm,-,N/A,,Clear,0,2012-11-23 06:32:00
1:33 AM,26.6,24.8,93,30.12,3.0,Calm,Calm,-,N/A,,Clear,0,2012-11-23 06:33:00
1:55 AM,26.4,25.3,96,30.12,9.0,Calm,Calm,-,N/A,,Clear,0,2012-11-23 06:55:00
2:51 AM,24.8,24.8,100,30.10,2.5,Calm,Calm,-,N/A,,Clear,0,2012-11-23 07:51:00
2:52 AM,24.8,24.8,100,30.10,1.8,Calm,Calm,-,N/A,,Clear,0,2012-11-23 07:52:00
2:53 AM,24.8,24.8,100,30.10,1.5,Calm,Calm,-,N/A,,Clear,0,2012-11-23 07:53:00
2:55 AM,25.2,24.3,96,30.09,1.5,Calm,Calm,-,N/A,,Clear,0,2012-11-23 07:55:00
2:56 AM,24.8,24.8,100,30.09,1.2,Calm,Calm,-,N/A,,Clear,0,2012-11-23 07:56:00
3:00 AM,24.8,24.8,100,30.09,1.5,Calm,Calm,-,N/A,,Clear,0,2012-11-23 08:00:00
3:01 AM,24.8,24.8,100,30.09,1.8,Calm,Calm,-,N/A,,Clear,0,2012-11-23 08:01:00
3:02 AM,24.8,24.8,100,30.09,2.0,Calm,Calm,-,N/A,,Clear,0,2012-11-23 08:02:00
3:03 AM,24.8,24.8,100,30.09,3.0,Calm,Calm,-,N/A,,Clear,0,2012-11-23 08:03:00
3:47 AM,24.8,23.0,93,30.08,2.5,Calm,Calm,-,N/A,,Clear,0,2012-11-23 08:47:00
3:55 AM,25.2,24.3,96,30.08,2.5,Calm,Calm,-,N/A,,Clear,0,2012-11-23 08:55:00
4:00 AM,24.8,24.8,100,30.08,2.5,Calm,Calm,-,N/A,,Clear,0,2012-11-23 09:00:00
4:01 AM,26.6,24.8,93,30.08,1.8,Calm,Calm,-,N/A,,Partly Cloudy,0,2012-11-23 09:01:00
4:02 AM,26.6,24.8,93,30.08,1.5,Calm,Calm,-,N/A,,Partly Cloudy,0,2012-11-23 09:02:00
4:03 AM,26.6,24.8,93,30.08,1.2,Calm,Calm,-,N/A,,Partly Cloudy,0,2012-11-23 09:03:00
4:09 AM,26.6,24.8,93,30.08,1.5,Calm,Calm,-,N/A,,Scattered Clouds,0,2012-11-23 09:09:00
4:10 AM,26.6,24.8,93,30.08,1.8,Calm,Calm,-,N/A,,Mostly Cloudy,0,2012-11-23 09:10:00
4:11 AM,26.6,24.8,93,30.08,2.0,Calm,Calm,-,N/A,,Mostly Cloudy,0,2012-11-23 09:11:00
4:12 AM,24.8,24.8,100,30.08,3.0,Calm,Calm,-,N/A,,Scattered Clouds,0,2012-11-23 09:12:00
4:13 AM,24.8,24.8,100,30.08,4.0,Calm,Calm,-,N/A,,Mostly Cloudy,0,2012-11-23 09:13:00
4:31 AM,24.8,24.8,100,30.08,10.0,Calm,Calm,-,N/A,,Overcast,0,2012-11-23 09:31:00
4:44 AM,26.6,24.8,93,30.07,6.0,Calm,Calm,-,N/A,,Overcast,0,2012-11-23 09:44:00
4:49 AM,26.6,26.6,100,30.07,2.5,Calm,Calm,-,N/A,,Overcast,0,2012-11-23 09:49:00
4:51 AM,26.6,26.6,100,30.07,2.0,Calm,Calm,-,N/A,,Overcast,0,2012-11-23 09:51:00
4:52 AM,26.6,26.6,100,30.07,1.8,Calm,Calm,-,N/A,,Overcast,0,2012-11-23 09:52:00
4:55 AM,27.0,26.1,96,30.07,1.5,Calm,Calm,-,N/A,,Overcast,0,2012-11-23 09:55:00
4:57 AM,26.6,26.6,100,30.07,0.8,Calm,Calm,-,N/A,,Mist,0,2012-11-23 09:57:00
4:59 AM,26.6,26.6,100,30.07,0.5,Calm,Calm,-,N/A,Fog,Light Freezing Fog,0,2012-11-23 09:59:00
5:00 AM,26.6,26.6,100,30.07,0.5,Calm,Calm,-,N/A,Fog,Light Freezing Fog,0,2012-11-23 10:00:00
5:01 AM,26.6,26.6,100,30.07,0.5,Calm,Calm,-,N/A,Fog,Light Freezing Fog,0,2012-11-23 10:01:00
5:02 AM,26.6,26.6,100,30.07,0.2,Calm,Calm,-,N/A,Fog,Light Freezing Fog,0,2012-11-23 10:02:00
5:03 AM,26.6,26.6,100,30.07,0.2,Calm,Calm,-,N/A,Fog,Light Freezing Fog,0,2012-11-23 10:03:00
5:04 AM,26.6,26.6,100,30.07,0.2,Calm,Calm,-,N/A,Fog,Light Freezing Fog,0,2012-11-23 10:04:00
5:05 AM,26.6,26.6,100,30.06,0.2,Calm,Calm,-,N/A,Fog,Light Freezing Fog,0,2012-11-23 10:05:00
5:06 AM,26.6,26.6,100,30.06,0.2,Calm,Calm,-,N/A,Fog,Light Freezing Fog,0,2012-11-23 10:06:00
5:08 AM,28.4,26.6,93,30.06,0.2,Calm,Calm,-,N/A,Fog,Light Freezing Fog,0,2012-11-23 10:08:00
5:09 AM,28.4,26.6,93,30.06,0.2,Calm,Calm,-,N/A,Fog,Light Freezing Fog,0,2012-11-23 10:09:00
5:10 AM,28.4,26.6,93,30.06,0.2,Calm,Calm,-,N/A,Fog,Light Freezing Fog,0,2012-11-23 10:10:00
5:14 AM,28.4,26.6,93,30.06,0.2,Calm,Calm,-,N/A,Fog,Light Freezing Fog,0,2012-11-23 10:14:00
5:15 AM,28.4,26.6,93,30.06,0.2,Calm,Calm,-,N/A,Fog,Light Freezing Drizzle,0,2012-11-23 10:15:00
5:16 AM,28.4,26.6,93,30.06,0.2,Calm,Calm,-,N/A,Fog,Light Freezing Drizzle,0,2012-11-23 10:16:00
5:22 AM,28.4,26.6,93,30.06,0.2,Calm,Calm,-,N/A,Fog,Light Freezing Drizzle,0,2012-11-23 10:22:00
5:28 AM,28.4,28.4,100,30.06,0.2,Calm,Calm,-,N/A,Fog,Light Freezing Drizzle,0,2012-11-23 10:28:00
5:32 AM,28.4,28.4,100,30.06,0.2,Calm,Calm,-,N/A,Fog,Light Freezing Fog,0,2012-11-23 10:32:00
5:44 AM,28.4,26.6,93,30.06,0.2,Calm,Calm,-,N/A,Fog,Light Freezing Drizzle,0,2012-11-23 10:44:00
5:55 AM,28.2,27.5,97,30.06,0.2,Calm,Calm,-,0.00,Fog,Light Freezing Drizzle,0,2012-11-23 10:55:00
6:13 AM,28.4,28.4,100,30.05,0.2,Calm,Calm,-,N/A,Fog,Light Freezing Fog,0,2012-11-23 11:13:00
6:17 AM,28.4,28.4,100,30.05,0.2,Calm,Calm,-,N/A,Fog,Light Freezing Fog,0,2012-11-23 11:17:00
6:36 AM,30.2,30.2,100,30.05,0.2,Calm,Calm,-,N/A,Fog,Light Freezing Fog,0,2012-11-23 11:36:00
6:55 AM,30.6,30.0,98,30.04,0.2,Calm,Calm,-,0.00,Fog,Light Freezing Fog,0,2012-11-23 11:55:00
7:52 AM,32.0,32.0,100,30.04,0.2,Calm,Calm,-,N/A,Fog,Light Freezing Fog,0,2012-11-23 12:52:00
7:55 AM,32.0,31.5,98,30.04,0.2,Calm,Calm,-,N/A,Fog,Light Freezing Fog,0,2012-11-23 12:55:00
8:14 AM,32.0,32.0,100,30.03,0.2,South,3.5,-,N/A,Fog,Fog,180,2012-11-23 13:14:00
8:43 AM,33.8,32.0,93,30.02,0.2,Calm,Calm,-,N/A,Fog,Fog,0,2012-11-23 13:43:00
8:55 AM,33.6,33.3,99,30.01,0.2,Calm,Calm,-,N/A,Fog,Fog,0,2012-11-23 13:55:00
9:05 AM,33.8,33.8,100,30.01,0.2,Calm,Calm,-,N/A,Fog,Fog,0,2012-11-23 14:05:00
9:28 AM,35.6,35.6,100,30.00,0.2,WNW,3.5,-,N/A,Fog,Fog,300,2012-11-23 14:28:00
9:55 AM,36.5,36.0,98,30.00,0.2,Calm,Calm,-,N/A,Fog,Fog,0,2012-11-23 14:55:00
9:58 AM,37.4,35.6,93,30.00,0.2,Calm,Calm,-,N/A,Fog,Fog,0,2012-11-23 14:58:00
10:06 AM,37.4,37.4,100,29.99,0.2,Calm,Calm,-,N/A,Fog,Fog,0,2012-11-23 15:06:00
10:15 AM,37.4,37.4,100,29.99,0.2,Calm,Calm,-,N/A,Fog,Fog,0,2012-11-23 15:15:00
10:21 AM,37.4,37.4,100,29.99,0.2,Calm,Calm,-,N/A,Fog,Fog,0,2012-11-23 15:21:00
10:26 AM,39.2,37.4,93,29.98,0.2,Calm,Calm,-,N/A,Fog,Fog,0,2012-11-23 15:26:00
10:27 AM,39.2,37.4,93,29.98,0.2,Calm,Calm,-,N/A,Fog,Fog,0,2012-11-23 15:27:00
10:29 AM,39.2,39.2,100,29.98,0.2,SE,3.5,-,N/A,Fog,Fog,130,2012-11-23 15:29:00
10:30 AM,39.2,39.2,100,29.98,0.5,SE,3.5,-,N/A,Fog,Fog,140,2012-11-23 15:30:00
10:36 AM,39.2,39.2,100,29.97,0.5,SE,3.5,-,N/A,Fog,Fog,140,2012-11-23 15:36:00
10:37 AM,39.2,39.2,100,29.97,0.5,SSE,4.6,-,N/A,Fog,Fog,150,2012-11-23 15:37:00
10:39 AM,39.2,39.2,100,29.97,0.8,Variable,3.5,-,N/A,,Mist,0,2012-11-23 15:39:00
10:41 AM,39.2,39.2,100,29.96,1.0,Calm,Calm,-,N/A,,Mist,0,2012-11-23 15:41:00
10:43 AM,41.0,39.2,93,29.96,1.2,Calm,Calm,-,N/A,,Overcast,0,2012-11-23 15:43:00
10:44 AM,41.0,39.2,93,29.96,1.8,Calm,Calm,-,N/A,,Overcast,0,2012-11-23 15:44:00
10:45 AM,41.0,39.2,93,29.96,2.0,Calm,Calm,-,N/A,,Overcast,0,2012-11-23 15:45:00
10:46 AM,41.0,39.2,93,29.96,2.5,Calm,Calm,-,N/A,,Overcast,0,2012-11-23 15:46:00
10:47 AM,41.0,39.2,93,29.96,2.5,Calm,Calm,-,N/A,,Overcast,0,2012-11-23 15:47:00
10:48 AM,41.0,41.0,100,29.96,3.0,Calm,Calm,-,N/A,,Mostly Cloudy,0,2012-11-23 15:48:00
10:55 AM,42.3,41.7,98,29.95,6.0,Calm,Calm,-,N/A,,Mostly Cloudy,0,2012-11-23 15:55:00
10:56 AM,42.8,42.8,100,29.95,7.0,Calm,Calm,-,N/A,,Scattered Clouds,0,2012-11-23 15:56:00
11:55 AM,52.2,45.9,79,29.89,10.0,South,10.4,-,N/A,,Clear,180,2012-11-23 16:55:00
12:55 PM,55.8,38.5,52,29.85,10.0,SSW,10.4,-,N/A,,Clear,200,2012-11-23 17:55:00
1:55 PM,57.0,38.8,51,29.82,10.0,South,11.5,-,N/A,,Scattered Clouds,180,2012-11-23 18:55:00
2:55 PM,56.5,38.7,51,29.78,10.0,South,15.0,-,N/A,,Clear,170,2012-11-23 19:55:00
3:55 PM,52.7,38.1,58,29.78,10.0,South,11.5,-,N/A,,Clear,190,2012-11-23 20:55:00
4:55 PM,49.6,38.7,66,29.77,10.0,SSW,6.9,-,N/A,,Clear,200,2012-11-23 21:55:00
5:55 PM,48.7,40.8,74,29.76,10.0,South,8.1,-,N/A,,Scattered Clouds,190,2012-11-23 22:55:00
6:55 PM,48.6,42.8,80,29.75,10.0,South,12.7,-,N/A,,Mostly Cloudy,180,2012-11-23 23:55:00
7:55 PM,48.4,43.5,83,29.74,10.0,South,10.4,-,N/A,,Overcast,180,2012-11-24 00:55:00
8:17 PM,48.2,42.8,82,29.73,10.0,South,10.4,-,N/A,,Overcast,190,2012-11-24 01:17:00
8:26 PM,48.2,42.8,82,29.74,10.0,South,11.5,-,N/A,,Overcast,180,2012-11-24 01:26:00
8:28 PM,48.2,42.8,82,29.73,10.0,South,11.5,-,N/A,,Overcast,190,2012-11-24 01:28:00
8:55 PM,47.8,43.7,86,29.73,10.0,South,11.5,-,N/A,,Overcast,180,2012-11-24 01:55:00
9:20 PM,48.2,44.6,87,29.71,10.0,South,10.4,-,N/A,,Overcast,180,2012-11-24 02:20:00
9:24 PM,48.2,44.6,87,29.71,10.0,South,9.2,-,N/A,,Overcast,190,2012-11-24 02:24:00
9:36 PM,48.2,44.6,87,29.71,10.0,South,9.2,-,N/A,,Light Drizzle,190,2012-11-24 02:36:00
9:45 PM,48.2,44.6,87,29.70,10.0,South,9.2,-,N/A,,Overcast,180,2012-11-24 02:45:00
9:55 PM,47.3,43.9,88,29.70,10.0,South,8.1,-,0.00,,Overcast,190,2012-11-24 02:55:00
10:04 PM,48.2,44.6,87,29.70,10.0,South,9.2,-,N/A,,Overcast,180,2012-11-24 03:04:00
10:28 PM,48.2,44.6,87,29.68,10.0,South,9.2,-,N/A,Rain,Light Rain,190,2012-11-24 03:28:00
10:55 PM,46.8,44.6,92,29.67,10.0,South,8.1,-,0.00,,Overcast,180,2012-11-24 03:55:00
11:10 PM,46.4,44.6,93,29.66,10.0,South,8.1,-,N/A,,Light Drizzle,170,2012-11-24 04:10:00
11:24 PM,46.4,44.6,93,29.65,10.0,South,6.9,-,N/A,,Overcast,170,2012-11-24 04:24:00
11:42 PM,46.4,44.6,93,29.65,10.0,South,8.1,-,N/A,,Light Drizzle,180,2012-11-24 04:42:00
11:55 PM,46.4,45.3,96,29.65,10.0,South,8.1,-,0.00,Rain,Light Rain,180,2012-11-24 04:55:00